Regional Weather Roundup
Issued by NWS Mt. Holly, NJ

Home | Current Version | Previous Version | Text Only | Print | Product List | Glossary On
Versions: 1 2 3 4 5 6 7 8 9 10 11 12 13 14 15 16 17 18 19 20 21 22 23 24 25 26 27 28 29 30 31 32 33 34 35 36 37 38 39 40 41 42 43 44 45 46 47 48 49 50
000
ASUS41 KPHI 020812
RWRPHI

REGIONAL WEATHER ROUNDUP
NATIONAL WEATHER SERVICE MOUNT HOLLY NJ
400 AM EDT THU APR 02 2015

NOTE:  "FAIR" INDICATES FEW OR NO CLOUDS BELOW 12,000 FEET WITH NO
SIGNIFICANT WEATHER AND/OR OBSTRUCTIONS TO VISIBILITY.

 * = STATION DOES NOT REPORT PRECIPITATION (E.G. RAIN, SNOW, ETC.)
        OR FOG.

NJZ015>026-020900-
SOUTHERN NEW JERSEY

CITY           SKY/WX    TMP DP  RH WIND       PRES   REMARKS
POMONA         CLEAR     37  31  78 SW6       30.26S WCI  32
RIO GRANDE*      N/A    N/A N/A N/A MISG        N/A
MILLVILLE      CLEAR     30  27  88 SW3       30.26S
WRIGHTSTOWN    CLEAR     35  26  71 SW5       30.21R WCI  30
MOUNT HOLLY    CLEAR     34  24  67 SW3       30.25S
TRENTON        CLEAR     32  23  69 CALM      30.23R

$$
NJZ001>014-020900-
NORTHERN NEW JERSEY

CITY           SKY/WX    TMP DP  RH WIND       PRES   REMARKS
SUSSEX         CLEAR     24  19  81 CALM      30.21S
ANDOVER*         N/A     25  21  85 CALM      30.21S
MORRISTOWN     CLEAR     28  25  86 CALM      30.22F
NEWARK         CLEAR     38  21  50 CALM      30.22F
TETERBORO      CLEAR     34  21  59 NW3       30.21F
CALDWELL       CLEAR     29  20  69 CALM      30.22F
SOMERVILLE     CLEAR     27  22  81 CALM      30.22S
ALLAIRE*       CLEAR     36  25  64 S7        30.22F WCI  30
TOMS RIVER*    CLEAR     27  21  80 CALM      30.24S

$$
PAZ043-044-047-054-055-060>062-066>071-020900-
EASTERN PENNSYLVANIA

CITY           SKY/WX    TMP DP  RH WIND       PRES   REMARKS
PHILADELPHIA   CLEAR     38  27  64 S3        30.26S
NORTH PHILA    CLEAR     33  24  69 CALM      30.26S
BLUE BELL      CLEAR     32  28  86 CALM      30.23S
DOYLESTOWN     CLEAR     32  24  72 S3        30.22S
QUAKERTOWN*    CLEAR     27  25  93 CALM      30.23S
POTTSTOWN      CLEAR     29  24  82 CALM      30.24F
LANCASTER      CLEAR     31  27  85 E5        30.22S WCI  26
COATESVILLE    CLEAR     39  28  65 SW3       30.23S
READING        CLEAR     31  25  78 CALM      30.22S
ALLENTOWN      CLEAR     27  23  85 CALM      30.23R
MOUNT POCONO   CLEAR     25  22  88 W3        30.16R
HAZLETON       CLEAR     28  27  93 CALM      30.21R
WILKES BARRE   PTCLDY    30  23  75 CALM      30.19R

$$
DEZALL-MDZ008-012-015-019-020-020900-
DELAWARE AND EASTERN MARYLAND

CITY           SKY/WX    TMP DP  RH WIND       PRES   REMARKS
WILMINGTON     CLEAR     37  27  67 S3        30.26S
DOVER          CLEAR     37  36  96 S5        30.26S WCI  33
GEORGETOWN     CLEAR     33  30  88 CALM      30.28S
EASTON         CLEAR     39  35  87 S3        30.29S
PATUXENT       CLEAR     43  30  60 SW10      30.26S
OCEAN CITY     CLEAR     38  31  76 W3        30.28S
WALLOPS ISLAND CLEAR     36  31  82 CALM      30.28F
CAMBRIDGE      CLEAR     37  36  93 CALM      30.26F
SALISBURY      CLEAR     30  28  92 E3        30.27F

$$
PAZ001-021-NYZ056-072-MDZ011-DCZ001-020900-
OTHER NEARBY LOCATIONS

CITY           SKY/WX    TMP DP  RH WIND       PRES   REMARKS
HARRISBURG     CLEAR     32  28  85 SE7       30.21S WCI  26
STATE COLLEGE  CLEAR     30  27  88 CALM      30.16R
WILLIAMSPORT   CLEAR     29  25  85 CALM      30.20S
BINGHAMTON     PTCLDY    32  16  51 S7        30.11F WCI  26
NEW YORK CITY  CLEAR     43  12  28 CALM      30.23F
BALTIMORE      PTCLDY    40  28  62 SW5       30.23F
WASHINGTON DC  FAIR      44  32  62 S8        30.26S

$$



USA.gov is the U.S. government's official web portal to all federal, state and local government web resources and services.